sat.trackr.live / text

‹ back to catalog

STARLINK-35354

NORAD 66477 · 2025-262X

PAYLOAD ACTIVE UNKNOWN

§ Identity

Operator
Country
US
Launch date
2025-11-15
Launch site
AFETR
Launch vehicle
Mass (kg)
RCS (m²)

Purposes: comms

External: N2YO · Heavens-Above · Gunter

§ Orbital elements

Epoch: 2026-09-20T07:30:16.778016Z

Period
94.27 min
Inclination
43.0010°
Eccentricity
0.0001444
Mean motion
15.27588637 rev/d
Perigee alt
482.0 km
Apogee alt
484.0 km
Semi-major
6,861.2 km
B*
3.6880e-4
RAAN
276.8502°
Arg perigee
270.4619°
Mean anomaly
89.6067°
Rev number
4,867

§ Raw data

STARLINK-353541 66477U 25262X   26263.31269419  .00009903  00000+0  36880-3 0  99992 66477  43.0010 276.8502 0001444 270.4619  89.6067 15.27588637 48675

JSON: /api/v1/satellites/66477 · /tle

For live sub-satellite position, see the globe view (requires WebGL).

§ Visibility from observer

Set your observer location to see the next 7 days of passes ≥ 10°. The values pass through the URL so the page stays shareable.

No JS? Fill the form by hand. The geolocation button needs JavaScript.